Regional Weather Roundup
Issued by NWS Cleveland, OH

Home | Current Version | Previous Version | Text Only | Print | Product List | Glossary On
Versions: 1 2 3 4 5 6 7 8 9 10 11 12 13 14 15 16 17 18 19 20 21 22 23 24 25 26 27 28 29 30 31 32 33 34 35 36 37 38 39 40 41 42 43 44 45 46 47 48 49 50
000
ASUS41 KCLE 210212
RWRCLE
OHIO REGIONAL WEATHER ROUNDUP
NATIONAL WEATHER SERVICE WILMINGTON, OH
1000 PM EDT SAT JUL 20 2019

NOTE: "FAIR" INDICATES FEW OR NO CLOUDS BELOW 12,000 FEET WITH NO
SIGNIFICANT WEATHER AND/OR OBSTRUCTIONS TO VISIBILITY.

OHZ001>008-015>018-024>027-034-035-043-044-210300-
   NORTHWEST OHIO

CITY           SKY/WX    TMP DP  RH WIND       PRES   REMARKS
DEFIANCE       FAIR      79  69  71 CALM      29.90F
FINDLAY        MOCLDY    84  69  60 N9        29.91R
TOLEDO EXPRESS FAIR      78  71  79 CALM      29.90S
TOLEDO EXEC    FAIR      79  70  74 CALM      29.89S
LIMA           FAIR      84  74  71 S8        29.92S HX  91
$$

OHZ009>014-019>023-028>033-038-089-210300-
   NORTHEAST OHIO

CITY           SKY/WX    TMP DP  RH WIND       PRES   REMARKS
CLE-HOPKINS    MOCLDY    83  72  69 N13       29.93R
CLE-LAKEFRONT  FAIR      79  72  79 NE7       29.91R
CUY CO. ARPT   MOCLDY    75  72  88 N8        29.94R
LORAIN-ELYRIA  MOCLDY    82  68  62 N10G25    29.93R
ASHTABULA      FAIR      79  69  71 SW10      29.93R
AKRON-CANTON   FAIR      83  73  72 SW7       29.95R
WOOSTER        FAIR      81  75  82 SW6       29.94S
MANSFIELD      FAIR      81  74  79 SW5       29.96S
YOUNGSTOWN     MOCLDY    77  67  71 NW6       29.96R
$$

OHZ042-051>053-060>062-070>072-077>081-210300-
  SOUTHWEST OHIO

CITY           SKY/WX    TMP DP  RH WIND       PRES   REMARKS
CINC-COVINGTON FAIR      83  72  69 SW3       29.96R
CINC-LUNKEN    FAIR      83  74  74 CALM      29.95R
HAMILTON       NOT AVBL
DAYTON         FAIR      83  73  72 SW7       29.96S
WRIGHT-PAT AFB FAIR      83  74  73 CALM      29.94S
DAYTON GENERAL FAIR      84  73  69 CALM      29.95R HX  90
WILMINGTON     FAIR      80  73  79 CALM      29.97R
$$

OHZ036-037-039>041-045>050-054>059-063>069-073>076-082>088-210300-
  CENTRAL AND SOUTHEAST OHIO

CITY           SKY/WX    TMP DP  RH WIND       PRES   REMARKS
COLUMBUS       FAIR      85  71  63 W5        29.94R HX  90
OSU AIRPORT    FAIR      84  72  67 W5        29.95S
BOLTON FIELD   FAIR      79  76  88 CALM      29.96S
RICKENBACK AFB FAIR      83  71  67 W5        29.95R
NEWARK         FAIR      81  74  79 W3        29.95R
MARION         FAIR      83  72  69 SW7       29.94F
LANCASTER      FAIR      79  73  82 SW3       29.97R
ZANESVILLE     FAIR      82  74  76 S6        29.96R
NEW PHILLY     FAIR      80  74  81 CALM      29.95R
$$



USA.gov is the U.S. government's official web portal to all federal, state and local government web resources and services.